[[{"header":{"parameterUnit":"m.s-1","parameterCategory":1,"la1":30.2992,"la2":30.254,"lo1":-89.0895,"lo2":-89.0443,"dy":0.0025,"dx":0.0025,"nx":19,"ny":19,"refTime":"2026-05-04T03:00:00:Z","depth":0,"parameterNumber":2,"parameterNumberName":"U-component_of_WINDS"},"data":[0,0,0,-0.3372,-0.3374,-0.3447,-0.3447,-0.3537,-0.3538,0,0,0,0,0,0,0,0,0,0,0,-0.3346,-0.3347,-0.3372,-0.3374,-0.3447,-0.3447,-0.3537,-0.3538,0,0,0,0,0,0,0,0,0,0,0,-0.3346,-0.3347,-0.3347,-0.3374,-0.3447,-0.3447,-0.3537,-0.3483,0,0,0,0,0,0,0,0,0,0,-0.3413,-0.3384,-0.3346,-0.3347,-0.3374,-0.3447,-0.3447,-0.3481,-0.3487,-0.3502,0,-0.3512,0,-0.3526,-0.3543,-0.3544,0,0,0,-0.3378,-0.338,-0.3403,-0.3347,-0.3375,-0.3447,-0.3415,-0.3484,-0.3491,-0.3509,-0.3513,-0.3517,-0.3528,-0.3544,-0.3544,-0.3614,-0.3615,0,0,-0.3374,-0.3358,-0.3398,-0.3407,-0.3393,-0.3413,-0.3417,-0.3488,-0.3492,-0.3514,-0.3519,-0.3529,-0.3544,-0.3545,-0.3614,-0.3614,0,0,0,-0.3359,-0.3355,-0.3376,-0.3403,-0.3416,-0.3415,-0.342,-0.3489,-0.3498,-0.352,-0.353,-0.3545,-0.3546,-0.3614,-0.3614,-0.3606,0,0,0,-0.3357,-0.3346,-0.3374,-0.3365,-0.3415,-0.3453,-0.3419,-0.3493,-0.3501,-0.353,-0.3545,-0.3547,-0.3614,-0.3614,-0.3606,-0.3606,0,0,0,-0.3343,-0.3345,-0.3354,-0.3364,-0.3395,-0.3452,-0.3465,-0.3495,-0.3507,-0.3544,-0.3547,-0.3614,-0.3614,-0.3606,-0.3605,-0.362,0,0,0,-0.3324,-0.3346,-0.3353,-0.3382,-0.3394,-0.3446,-0.3465,-0.3505,-0.3535,-0.3545,-0.3614,-0.3614,-0.3606,-0.3605,-0.362,-0.363,-0.3632,0,0,-0.3343,-0.3347,-0.3366,-0.3374,-0.3421,-0.3436,-0.3482,-0.3526,-0.3545,-0.3591,-0.3593,-0.3606,-0.3605,-0.362,-0.3649,-0.3651,0,0,0,-0.3366,-0.3379,-0.3395,-0.3422,-0.3455,-0.3484,-0.3522,-0.3539,-0.3578,-0.3564,-0.3615,-0.3616,-0.3625,-0.3631,-0.3632,-0.3642,-0.3616,-0.3616,-0.3616,-0.3371,-0.3393,-0.3425,-0.3456,-0.3482,-0.3521,-0.3546,-0.3575,-0.359,-0.3602,-0.3616,-0.363,-0.3636,-0.3638,-0.3647,-0.3622,-0.3622,-0.3622,-0.3622,-0.3401,-0.3423,-0.3442,-0.348,-0.3504,-0.3537,-0.3576,-0.3586,-0.3621,-0.3622,-0.3631,-0.363,-0.3639,-0.3649,-0.3621,-0.3622,-0.3622,-0.3622,-0.3622,-0.3407,-0.3422,-0.344,-0.3483,-0.3514,-0.3545,-0.3578,-0.3599,-0.3619,-0.3628,-0.3646,-0.3646,-0.365,-0.3635,-0.3635,-0.3635,-0.3635,-0.3635,-0.3635,-0.3406,-0.3427,-0.3452,-0.3489,-0.351,-0.354,-0.358,-0.3602,-0.3632,-0.3645,-0.3645,-0.366,-0.3635,-0.3629,-0.3636,-0.3636,-0.3636,-0.3636,-0.3635,-0.343,-0.3428,-0.3465,-0.3486,-0.3533,-0.3563,-0.3588,-0.3632,-0.3653,-0.3669,-0.3682,-0.3659,-0.3666,-0.3665,-0.3661,-0.3676,-0.3676,-0.3676,-0.3676,-0.3436,-0.3441,-0.3485,-0.3517,-0.3551,-0.3578,-0.3623,-0.3655,-0.3688,-0.3703,-0.3704,-0.3699,-0.3697,-0.3705,-0.3703,-0.3699,-0.3724,-0.3724,-0.3724,-0.3453,-0.3462,-0.3495,-0.3525,-0.3563,-0.3596,-0.3639,-0.3677,-0.3714,-0.3726,-0.3716,-0.3714,-0.3706,-0.3702,-0.3714,-0.3711,-0.3704,0,0]},{"header":{"parameterUnit":"m.s-1","parameterCategory":1,"la1":30.2992,"la2":30.254,"lo1":-89.0895,"lo2":-89.0443,"dy":0.0025,"dx":0.0025,"nx":19,"ny":19,"refTime":"2026-05-04T03:00:00:Z","depth":0,"parameterNumber":3,"parameterNumberName":"V-component_of_WINDS"},"data":[0,0,0,5.7366,5.7369,5.7495,5.7495,5.7661,5.7662,0,0,0,0,0,0,0,0,0,0,0,5.7336,5.7338,5.7366,5.737,5.7495,5.7495,5.766,5.7662,0,0,0,0,0,0,0,0,0,0,0,5.7336,5.7338,5.7339,5.737,5.7495,5.7495,5.766,5.7563,0,0,0,0,0,0,0,0,0,0,5.7439,5.742,5.7337,5.7339,5.7371,5.7495,5.7496,5.7558,5.7569,5.7607,0,5.7647,0,5.7658,5.7674,5.7675,0,0,0,5.7363,5.7411,5.7439,5.734,5.7372,5.7495,5.7437,5.7564,5.7576,5.7622,5.7649,5.7655,5.766,5.7675,5.7676,5.7924,5.7926,0,0,5.7356,5.7362,5.743,5.7447,5.7433,5.7433,5.7441,5.7571,5.76,5.765,5.7659,5.7663,5.7676,5.7678,5.7923,5.7925,0,0,0,5.7341,5.7358,5.7382,5.7441,5.7463,5.7436,5.7446,5.7594,5.7602,5.7661,5.7665,5.7677,5.7679,5.7921,5.7924,5.7999,0,0,0,5.7336,5.7349,5.7379,5.7384,5.7461,5.7531,5.7466,5.7593,5.7607,5.7664,5.7677,5.7681,5.792,5.7923,5.7994,5.8033,0,0,0,5.7326,5.7347,5.7368,5.7384,5.7439,5.7529,5.7544,5.7596,5.7611,5.7675,5.7682,5.7919,5.7922,5.7989,5.8025,5.8097,0,0,0,5.7316,5.7436,5.737,5.7505,5.7438,5.7577,5.7543,5.7646,5.7711,5.7678,5.792,5.7923,5.7988,5.802,5.8092,5.8156,5.8185,0,0,5.747,5.7455,5.7533,5.7478,5.763,5.7557,5.772,5.7772,5.7772,5.7872,5.7878,5.7996,5.8025,5.8096,5.8349,5.8372,0,0,0,5.7584,5.764,5.7679,5.7742,5.7786,5.7824,5.7852,5.7871,5.7955,5.7827,5.8043,5.806,5.8101,5.8131,5.8151,5.8183,5.7939,5.7939,5.7938,5.781,5.7803,5.7931,5.7939,5.7999,5.8025,5.8071,5.81,5.8077,5.8127,5.8156,5.8311,5.8347,5.8361,5.8395,5.8193,5.8193,5.8193,5.8194,5.8032,5.8108,5.8073,5.8183,5.8174,5.8266,5.8293,5.8273,5.8353,5.829,5.8326,5.8253,5.8386,5.8415,5.8199,5.8198,5.8198,5.8197,5.8197,5.8176,5.8211,5.8232,5.8318,5.8384,5.8387,5.8465,5.8455,5.8445,5.8481,5.8507,5.8505,5.8499,5.8495,5.8496,5.8496,5.8497,5.8497,5.8497,5.8315,5.8337,5.8406,5.846,5.8496,5.8541,5.8566,5.8599,5.8633,5.8619,5.8619,5.8586,5.8403,5.8354,5.8505,5.8504,5.8503,5.8502,5.8502,5.8537,5.8484,5.859,5.8626,5.8685,5.8748,5.8734,5.8803,5.8829,5.8867,5.8827,5.8695,5.8677,5.8661,5.862,5.8832,5.8832,5.8832,5.8832,5.8655,5.8646,5.8749,5.8806,5.886,5.8857,5.8971,5.8989,5.8999,5.9013,5.8982,5.8929,5.8913,5.8904,5.8884,5.8845,5.9109,5.9109,5.9109,5.8788,5.8782,5.8884,5.8895,5.8939,5.8976,5.9081,5.9144,5.9145,5.912,5.9023,5.9011,5.8925,5.8898,5.8869,5.8837,5.8766,0,0]}]]